Weather in Solovatovo

Russia / Kostroma Oblast     57°34′25″N   43°26′50″E
temp.,
°C
wind,
m/s
gust,
m/s
humid.,
%
clouds,
%
prec.,
mm/h
press.,
hPa
HPBL,
m
11 may, tue
tue1100:00+5ne27965 0.0 1028138
03:00+3ne310955 0.0 1029193
06:00+6ne310821 0.0 1029277
09:00+12ne47500 0.0 1029627
12:00+17ne45390 0.0 1029911
15:00+19ene34424 0.0 1028976
18:00+17ene25615 0.0 1028239
21:00+12ene24820 0.0 102961
12 may, wed
wed1200:00+10e24900 0.0 102961
03:00+10e23950 0.0 102937
06:00+12ene36880 0.0 1029159
09:00+19ene35645 0.0 1029525
12:00+23e45490 0.0 10271308
15:00+24ese4744100 0.0 10252633
18:00+21e38665 0.0 1025340
21:00+16ese258057 0.0 102595
13 may, thu
thu1300:00+13ese228759 0.0 102531
03:00+14ese2681100 0.0 1025129
06:00+15ese288087 0.0 1025210
09:00+20ese475672 0.0 1024722
12:00+20ese485441 0.0 1023781
15:00+21sse71053100 0.0 10211462
18:00+18se5137516 0.1 10201051
21:00+15sse51385100 0.3 1019684
14 may, fri
fri1400:00+14se389697 6.8 1019365
03:00+13sse1199100 7.6 101927
06:00+14ssw129878 0.1 1019176
09:00+17wsw128365 0.1 1020569
12:00+20sw2356100 0.0 1020920
15:00+21sw235297 0.0 1020863
18:00+20ssw126599 0.0 1018115
21:00+15ese228222 0.0 101811
15 may, sat
sat1500:00+14ese2293100 0.0 101839
03:00+14sw0197100 1.2 101826
06:00+16se2994100 0.1 1016325
09:00+21s3772100 0.1 1015599
12:00+26s4750100 0.0 10141159
15:00+27s5134230 0.0 10131526
18:00+24sse512536 0.0 10121212
21:00+19sse514678 0.0 1011562